Wind_Speed
8 10 6 9 9 10 11 13 12 11 12 13 16 17 16 15 14 15 14 14 14 15 14 14 15 16 16 15 14 13 12 11 10 12 12 12 12 10 10 9 9 8 8
15 11 8 11 9 9 11 12 12 11 12 13 15 16 16 16 14 15 15 15 15 14 16 15 15 16 15 14 14 13 13 12 11 11 10 10 10 8 8 8 8 7 6
17 14 13 11 10 8 11 11 11 10 12 13 14 15 15 15 14 15 14 14 15 15 15 15 15 15 15 14 14 12 12 11 10 8 9 8 6 7 6 6 5 5 5
16 15 13 11 9 9 10 11 12 10 11 10 14 14 15 14 15 14 15 14 14 14 16 16 15 15 15 15 14 12 11 10 9 6 6 6 5 6 5 4 3 2 2
13 12 12 10 13 11 6 10 16 12 5 10 13 14 14 13 15 14 15 14 14 15 15 13 14 14 13 13 11 9 8 5 2 3 2 4 4 4 2 1 2 2 2
10 12 16 14 12 14 15 20 15 6 5 10 12 13 13 13 13 14 14 14 14 13 13 11 12 12 12 11 9 7 3 2 2 3 1 2 3 2 0 3 4 5 5
11 14 13 12 12 14 17 17 14 7 6 10 13 15 13 12 12 12 12 13 12 12 11 10 10 10 10 8 6 4 2 1 4 4 1 1 1 0 2 4 4 6 6
10 11 10 10 11 11 13 10 9 6 6 10 13 14 13 13 13 13 11 11 11 10 9 8 8 8 6 5 5 7 6 4 3 3 1 1 1 1 1 3 6 8 9
11 11 10 9 9 10 10 8 8 7 7 9 12 12 12 11 12 12 12 11 10 9 8 7 7 5 4 3 4 6 6 3 3 2 2 2 1 1 2 5 7 10 11
11 11 11 11 9 9 9 8 7 7 8 8 8 10 10 9 9 10 11 10 8 8 7 6 5 4 3 1 2 3 4 3 0 3 2 1 1 2 4 7 10 14 16
10 11 10 10 9 9 10 7 7 7 8 7 8 7 8 8 8 8 8 7 7 6 6 6 6 4 3 1 1 2 3 4 5 6 5 3 4 5 9 12 14 15 17
13 12 11 10 10 9 10 9 8 8 6 6 6 6 6 6 6 6 4 5 5 4 4 4 5 4 2 1 2 4 6 7 9 8 6 4 5 5 7 8 8 22 17
15 13 12 11 10 10 10 9 8 8 8 7 6 6 6 4 4 2 2 3 3 3 3 3 3 3 3 4 4 5 7 7 7 7 4 5 6 7 7 11 7 13 10
17 14 12 11 10 10 9 9 11 9 7 5 4 2 1 1 0 1 2 2 2 2 3 4 5 5 5 5 4 3 3 3 4 4 1 2 7 10 13 14 14 11 8
18 16 14 12 10 10 9 11 11 8 6 4 2 2 2 4 1 1 1 1 3 5 5 3 2 5 7 7 5 2 4 3 1 1 3 7 8 11 15 18 19 13 9
19 18 17 14 12 12 11 11 9 7 5 5 4 2 2 2 1 2 2 2 2 5 4 2 3 4 5 4 2 3 2 4 3 3 5 8 10 11 11 15 18 11 8
23 20 19 16 16 14 13 11 8 7 5 4 5 4 2 2 2 2 1 1 1 3 4 4 3 3 4 2 2 5 5 3 3 5 6 7 8 6 8 12 11 5 5
23 23 20 19 18 15 14 12 9 8 7 6 6 7 4 4 4 3 3 3 2 2 5 7 6 3 3 4 3 5 4 5 4 5 2 6 9 11 10 6 6 3 2
24 24 22 22 20 16 16 14 11 9 8 7 10 10 5 6 6 6 6 7 5 3 3 3 2 1 4 5 2 3 4 4 4 5 6 7 11 6 9 5 1 1 1
22 20 24 24 19 15 13 14 12 11 10 9 11 10 10 9 8 7 8 7 8 6 4 3 4 6 5 3 2 3 5 5 5 7 10 4 8 4 5 1 2 1 2
22 21 27 26 20 18 15 13 11 13 9 10 10 9 10 10 8 8 6 7 8 9 7 5 3 4 5 2 2 4 9 8 7 6 5 7 7 5 3 3 3 3 5
27 25 27 27 23 20 18 15 12 13 9 10 11 10 11 11 9 8 8 4 5 8 8 6 5 2 1 5 2 3 3 3 4 5 4 6 5 4 2 2 3 6 5
27 30 29 27 25 22 19 16 13 11 8 9 9 13 12 11 9 9 11 9 5 3 5 5 3 3 2 3 4 3 1 2 5 2 3 7 7 6 4 1 2 3 4
31 31 29 26 26 25 22 19 18 16 14 11 14 12 10 11 9 6 4 8 6 5 3 2 1 3 2 2 3 5 2 1 1 3 5 7 9 10 4 2 0 2 3
28 34 32 28 26 27 25 22 18 17 16 10 12 10 10 10 9 8 7 7 4 3 3 1 1 2 2 3 2 1 1 2 2 1 1 10 9 8 6 6 4 4 2
24 29 30 30 30 29 26 24 22 19 18 15 12 13 11 11 11 11 9 8 6 3 3 2 2 2 3 3 3 3 2 1 1 0 1 3 6 5 7 8 2 3 2
Wind_Direction
167 143 138 134 127 115 114 112 100 111 110 112 116 114 113 114 114 111 109 113 114 109 112 113 112 113 109 110 109 110 109 102 105 106 106 101 96 97 99 103 99 99 103
148 133 120 131 108 107 104 103 96 102 105 109 106 107 112 112 111 111 108 114 113 111 108 105 107 108 112 114 113 114 105 98 96 103 100 93 88 105 101 108 118 117 130
135 125 116 114 100 95 87 92 86 92 101 103 108 107 103 105 106 109 113 114 109 112 108 106 106 108 109 113 113 109 103 100 100 100 107 107 85 100 102 107 121 141 149
127 125 124 123 114 99 89 98 83 75 90 105 103 104 100 99 102 108 109 110 114 114 112 112 114 117 117 114 112 109 99 89 85 93 98 87 85 85 89 80 100 128 152
130 127 131 125 114 114 119 123 101 85 85 102 100 98 94 100 99 107 104 107 106 102 102 109 112 112 112 109 105 99 101 100 57 29 87 82 90 76 67 106 248 289 298
130 123 129 133 136 137 113 107 101 110 128 105 100 99 97 93 97 100 102 100 97 99 101 104 108 108 109 102 94 85 68 4 276 232 126 99 82 83 355 295 291 285 275
143 143 140 141 137 141 139 139 129 128 104 107 107 94 93 94 97 101 95 93 93 95 97 103 112 110 111 101 81 57 5 3 114 139 51 58 72 337 288 296 303 292 288
153 138 147 153 150 144 144 144 132 132 120 109 99 97 94 94 95 101 93 90 90 91 94 105 114 121 115 93 71 48 64 92 100 29 68 123 160 167 314 305 302 299 301
155 155 158 167 155 152 148 144 138 127 115 102 99 97 91 87 94 97 90 87 89 89 92 108 126 129 117 100 71 56 65 79 65 34 117 123 167 215 287 290 288 293 298
168 165 169 169 164 157 151 136 129 112 96 100 100 105 104 104 98 99 104 96 93 93 95 103 121 136 130 96 68 71 55 44 34 22 346 166 238 266 287 297 311 313 313
181 178 180 172 164 158 143 137 129 116 110 108 117 122 127 119 113 107 104 102 94 94 90 88 89 98 127 84 0 1 348 2 9 344 315 303 310 322 321 327 331 327 326
188 186 184 176 168 158 154 158 152 140 140 142 147 141 136 123 118 116 116 118 112 100 87 73 67 65 70 13 312 299 299 310 314 316 320 310 305 312 327 297 328 331 322
191 187 184 178 174 170 173 169 160 142 143 129 127 121 116 118 125 108 116 91 81 77 71 40 35 17 359 335 315 290 280 289 297 319 304 317 289 277 270 275 267 316 305
196 193 188 183 178 180 176 166 157 145 139 146 173 152 107 107 253 99 76 74 58 7 345 343 336 353 11 8 354 284 258 276 317 337 342 249 270 265 276 295 302 342 14
199 196 193 186 184 183 178 165 153 155 162 168 161 177 100 74 60 36 337 307 328 349 340 354 29 58 47 39 47 54 242 247 279 337 259 256 274 282 298 312 307 317 354
197 196 189 190 185 188 171 165 172 184 197 227 237 197 154 288 25 69 64 55 3 11 27 54 60 57 51 41 57 57 92 224 228 235 268 271 284 309 328 318 313 317 27
202 199 195 193 192 189 179 183 191 207 221 237 210 192 199 184 144 111 117 329 342 31 18 8 344 343 355 136 137 143 134 178 228 258 279 277 281 291 315 317 330 77 42
207 202 203 200 199 192 190 190 207 227 251 249 219 204 211 199 187 195 236 261 256 336 357 336 332 296 170 157 154 159 174 196 210 255 294 297 280 287 288 329 33 68 24
206 208 204 205 204 200 204 209 216 238 244 230 217 221 236 206 211 228 256 262 246 240 315 337 22 47 123 147 186 164 185 209 240 288 317 303 302 297 309 244 15 232 260
207 215 207 205 205 203 204 204 215 231 219 231 217 243 235 222 225 255 263 263 245 230 230 196 80 66 70 114 205 240 255 253 268 297 297 323 333 316 314 110 331 53 7
216 216 207 203 201 197 181 187 200 199 233 217 213 221 223 221 233 254 262 258 250 221 217 197 124 69 45 20 285 268 264 264 277 303 299 326 337 288 318 325 33 72 18
210 214 212 211 202 199 194 195 197 213 210 220 229 222 223 222 234 245 240 251 213 220 223 224 230 229 27 32 19 34 358 343 284 278 315 344 344 349 357 118 62 61 28
211 211 211 211 207 204 202 203 206 192 201 219 217 220 219 223 247 271 252 231 205 192 199 177 136 123 115 42 15 85 42 283 327 321 2 33 12 318 301 273 334 74 38
212 214 215 214 213 212 205 198 199 206 209 219 218 217 226 229 249 242 210 197 214 216 206 181 122 99 84 103 87 76 64 19 30 339 9 15 20 15 279 291 337 158 38
207 213 215 215 214 214 207 203 207 215 211 218 216 226 218 238 244 235 236 227 215 189 224 312 299 303 356 356 347 31 291 63 69 136 318 336 5 17 3 337 288 197 8
204 210 216 215 212 212 213 212 213 215 215 222 228 224 227 236 241 239 236 242 252 256 266 280 309 283 308 308 309 264 275 298 322 297 264 302 324 328 359 6 5 192 320
Height
807 808 810 811 813 813 814 815 816 817 816 818 818 820 821 823 824 824 825 827 829 830 832 832 834 833 833 835 835 836 837 836 836 836 836 837 837 837 838 838 838 839 840
806 809 811 813 815 816 816 817 819 820 819 819 821 822 823 824 826 826 828 829 830 832 833 834 836 836 836 837 837 838 838 838 838 839 839 839 840 840 840 841 842 842 842
807 811 814 816 816 818 819 820 821 822 823 822 823 824 825 826 827 828 830 832 833 834 835 836 838 839 839 840 840 840 840 841 841 841 841 841 842 842 843 843 844 843 843
810 813 815 818 819 820 820 821 823 825 825 825 825 826 826 828 828 830 832 833 835 836 837 838 839 841 841 842 843 843 843 843 844 844 844 844 845 845 846 846 845 845 845
812 815 817 819 821 822 821 824 824 826 828 828 826 827 829 830 831 832 834 836 837 837 839 841 841 843 844 844 845 845 846 846 846 846 846 847 847 847 847 847 846 846 846
814 817 819 821 823 823 825 827 830 830 829 830 830 830 831 833 834 835 836 839 839 840 841 842 844 845 847 847 847 848 848 847 847 848 849 849 849 849 848 847 847 846 846
816 817 820 822 823 826 828 829 832 832 832 832 832 831 833 835 837 839 840 840 842 843 843 844 846 848 849 849 848 848 848 848 849 850 850 849 849 848 848 847 846 845 847
817 818 821 824 825 827 830 831 831 832 833 834 833 833 835 838 839 840 841 842 843 843 844 846 847 848 849 849 850 849 849 849 850 850 849 848 848 848 849 848 846 846 849
819 821 822 822 828 829 830 831 833 834 834 835 834 836 837 840 841 842 843 844 844 844 846 847 848 849 850 851 850 850 850 850 849 848 848 849 850 850 849 847 844 843 846
821 824 825 826 829 831 832 833 834 836 836 836 837 838 839 841 842 843 843 844 845 845 847 847 849 850 851 851 851 851 850 850 849 850 850 850 850 851 850 848 847 845 844
822 824 826 828 830 832 834 835 835 836 837 839 840 840 841 842 844 845 845 846 845 846 848 849 850 851 851 851 851 851 850 850 850 850 851 852 853 854 852 850 851 848 844
822 824 827 829 832 834 835 835 836 837 839 841 842 842 842 844 845 846 847 847 846 848 849 850 850 851 851 851 851 850 849 850 850 849 851 852 852 851 850 848 851 852 847
821 825 829 831 833 834 835 836 838 839 841 842 842 843 844 845 846 847 847 847 848 849 849 850 850 850 851 851 850 848 848 848 848 849 850 852 850 848 846 844 841 840 842
822 826 829 833 835 836 836 838 840 841 842 844 843 844 845 846 847 848 847 848 848 848 850 850 850 850 850 849 847 846 846 847 848 849 849 849 847 845 842 841 842 840 836
824 827 830 833 835 836 838 840 841 842 844 844 845 846 846 847 848 848 848 848 848 849 849 850 850 849 848 848 846 845 845 846 846 847 848 847 845 844 842 841 840 840 837
823 827 830 832 834 836 839 840 842 843 844 845 846 847 847 848 849 848 848 849 850 850 850 850 850 849 848 847 846 846 845 845 845 845 846 845 844 844 843 840 837 837 836
822 825 829 832 833 836 839 840 842 843 844 846 846 847 849 849 850 849 849 850 850 850 851 851 850 849 848 847 846 845 845 845 845 844 845 844 844 843 842 840 837 836 836
822 824 828 831 833 836 838 840 842 843 844 845 847 848 849 849 849 849 850 850 850 850 851 851 850 849 848 847 847 846 846 845 843 842 842 842 841 841 841 841 838 838 838
821 824 826 829 832 836 837 839 841 842 844 845 847 848 849 849 850 850 850 850 851 851 852 852 850 849 849 848 848 848 848 847 845 843 843 842 840 841 840 839 838 838 838
821 824 826 828 832 834 836 838 840 841 843 844 846 847 849 850 850 850 850 850 851 851 852 852 851 850 849 849 849 848 847 847 846 845 843 842 840 841 840 839 839 839 838
819 822 825 826 830 832 835 836 838 839 841 842 845 847 848 849 850 850 850 850 850 851 852 852 852 851 850 850 849 848 846 846 846 845 843 841 840 840 841 839 838 838 837
816 820 823 825 828 830 833 835 837 838 840 842 844 847 848 849 850 850 850 850 849 850 851 851 851 851 850 850 849 848 850 847 844 843 843 841 839 838 840 839 838 837 836
815 816 820 823 826 830 832 834 836 838 840 842 843 845 847 849 850 850 849 851 850 850 850 850 850 850 850 850 849 850 853 853 848 843 843 842 841 840 840 839 838 836 836
811 814 818 821 825 828 831 833 836 836 838 841 842 844 847 848 849 850 849 850 851 851 850 850 850 850 850 850 851 850 851 852 850 848 843 842 842 840 840 840 838 836 837
808 811 815 819 822 826 830 831 833 835 838 839 841 843 845 846 848 849 849 850 851 851 851 851 851 850 850 850 851 851 851 851 850 849 847 842 841 842 840 839 838 837 838
806 809 813 818 820 824 827 830 831 833 835 838 840 842 843 846 847 847 849 848 849 850 851 852 852 852 851 850 850 851 851 850 850 848 848 845 842 841 840 838 837 838 838